Find Gao Fen 12-02

NORAD ID: 48079 Int'l Des: 2021-026 Owner: ZLZB Country: CN operational
LEOCIRCULARRETROGRADESSO

リアルタイム位置

3D地球を読み込み中...

Gao Fen 12-02について

説明を読み込み中...

次回通過

Passes for default location (London). Set your location on the main map for personalized predictions.

高度履歴

Loading altitude history...

軌道要素

1 48079U 21026A 26104.61782833 .00000234 00000-0 37717-4 0 9998
2 48079 97.9928 103.0627 0006305 82.9402 277.2527 14.80244775272355
Epoch: Apr 14, 2026 • Age: 8 hours

現在のステータス

高度 654.1 km
速度 7.53 km/s
衛星直下点 -57.22°S, 67.37°W
打ち上げ日 Mar 30, 2021
運用期間 5 years
タイプ other

技術仕様

分類 Payload
質量 3000.00 kg
乾燥質量 3000.00 kg
総質量 3000.00 kg
長さ 2.00 m
直径 2.00 m
スパン 8.00 m
形状 Box + 3 Pan
製造者 SAST
バスタイプ CS-L3000B
フェーズステータス In Orbit
所有者/国 ZLZB/CN

Most Searched